Terug naar catalogus

STARLINK-3973

ActiefCommunicatieVLEO
NORAD 52645·PAYLOAD·🇺🇸 United States

Gelanceerd May 14, 2022 vanaf Cape Canaveral Space Force Station

Loading…

Volgende Passages (komende 24 uur)

TLE

VersSource: CelesTrak SupGP

Epoch: Sep 15, 2026, 01:20 UTC

1 52645C 22052AZ  26258.05604167  .00042425  00000+0  13643-2 0  2588
2 52645  53.1580 116.1516 0001339  81.7251 240.9320 15.31680703    12

Volg STARLINK-3973 in realtime met AllMySat

Download on the App Store